CAPE
156 551 641 1116 1293 1194 1084 958 820 666 617 601 553 458 499 428 404 366 718 541 510 372 251 211 138 109 98 2 0 0 0 0 0 75 725 569 440 305 159 142 439 416 504
94 685 804 1361 1300 1262 1084 950 883 767 631 586 448 669 653 605 566 734 621 418 304 173 41 0 3 4 2 2 0 0 0 0 0 0 50 231 246 79 0 0 0 82 397
46 640 940 1399 1343 1219 996 918 803 765 828 719 988 881 807 629 481 548 546 411 302 83 8 0 1 3 3 0 0 0 0 0 0 0 0 25 118 295 20 0 0 0 0
0 632 955 1230 1345 1202 976 957 632 611 902 975 912 810 699 481 409 375 296 317 106 1 0 0 0 0 0 0 0 0 0 0 0 0 0 0 4 103 227 1 0 0 0
0 606 970 1173 1181 1229 1092 947 627 495 746 898 880 806 710 490 241 28 1 15 0 0 0 0 0 0 0 0 0 0 0 0 0 0 0 0 1 26 103 79 2 0 0
0 359 954 1084 1270 1247 1114 897 641 515 689 1067 955 785 570 107 0 0 2 2 0 0 0 0 0 0 0 0 0 0 0 0 0 0 0 0 8 2 5 65 10 0 0
0 73 680 892 1069 1102 1127 986 775 615 745 1125 833 554 232 57 2 2 0 1 0 0 0 0 0 0 0 0 0 0 0 0 0 0 0 0 0 0 7 3 4 8 5
0 0 80 540 850 915 965 1004 882 699 748 942 646 157 86 1 3 0 0 1 0 0 0 0 0 0 0 0 0 0 0 0 0 0 0 0 0 0 0 0 0 0 0
15 17 83 253 435 562 712 767 760 700 655 794 205 0 0 0 1 1 0 0 0 0 0 0 0 0 0 0 0 0 0 0 0 0 0 0 0 0 0 0 0 0 0
14 42 85 151 247 456 647 677 725 643 676 403 4 0 0 0 0 0 0 0 0 0 0 0 0 0 0 0 0 0 0 0 0 0 0 0 0 0 0 0 0 0 0
0 51 74 123 195 231 285 467 423 426 339 184 0 0 0 0 0 0 0 0 0 0 0 0 0 0 0 0 0 0 0 0 0 0 0 0 0 0 0 0 0 0 0
0 1 32 87 147 171 130 136 341 323 305 150 25 0 0 0 0 0 0 0 0 0 0 0 0 0 0 0 0 0 0 0 0 0 0 0 0 0 0 0 0 0 0
0 0 0 5 47 94 92 50 72 47 126 252 136 15 2 0 0 0 0 0 0 0 0 0 0 0 0 0 0 0 0 0 0 0 0 0 0 0 0 0 0 0 0
0 0 0 0 0 12 30 5 16 15 38 90 59 10 5 1 0 0 0 0 0 0 0 0 0 0 0 0 0 0 0 0 0 0 0 0 0 0 0 0 0 0 0
0 0 0 0 0 0 22 20 0 0 0 27 2 2 1 0 0 0 0 0 0 0 0 0 0 0 0 0 0 0 0 0 0 0 0 0 0 0 0 0 0 1 3
0 0 0 0 0 0 0 1 0 0 0 0 0 0 0 0 0 0 0 0 0 0 0 0 0 0 0 0 0 0 0 0 0 0 0 0 0 0 0 0 0 1 4
0 0 0 0 0 0 0 0 0 0 0 0 0 0 0 0 0 0 0 0 0 0 0 0 0 0 0 0 0 0 0 0 0 0 0 0 0 0 0 4 4 0 4
0 0 0 0 0 0 0 0 0 0 0 0 0 0 0 0 0 0 0 0 0 0 0 0 0 0 0 0 0 0 0 0 0 0 0 0 0 0 0 0 0 0 0
0 0 0 0 0 0 0 0 0 0 0 0 0 0 0 0 0 0 0 0 0 0 0 0 0 0 0 0 0 0 0 0 0 0 0 0 0 0 0 0 0 0 0
0 0 0 0 0 0 0 0 0 0 0 0 0 0 0 0 0 0 0 0 0 0 0 0 0 0 0 0 0 0 0 0 0 0 0 0 0 0 0 0 0 0 0
0 0 0 0 0 0 0 0 0 0 0 0 0 0 0 0 0 0 0 0 0 0 0 0 0 0 0 0 0 0 0 0 0 0 0 0 0 0 0 0 0 0 0
0 0 0 0 0 0 0 0 0 0 0 0 0 0 0 0 0 0 0 0 0 0 0 0 0 0 0 0 0 0 0 0 0 0 0 0 0 0 0 0 0 0 0
0 0 0 0 0 0 0 0 0 0 0 0 0 0 0 0 0 0 0 0 0 0 0 0 0 0 0 0 0 0 0 0 0 0 0 0 0 0 0 0 0 0 0
0 0 0 0 0 0 0 0 0 0 0 0 0 0 0 0 0 0 0 0 0 0 0 0 0 0 0 0 0 0 0 0 0 0 0 0 0 0 0 0 0 0 0
0 0 0 0 0 0 0 0 0 0 0 0 0 0 0 0 0 0 0 0 0 0 0 0 0 0 0 0 0 0 0 0 0 0 0 0 0 0 0 0 0 0 0
0 0 0 0 0 0 0 0 0 0 0 0 0 0 0 0 0 0 0 0 0 0 0 0 0 0 0 0 0 0 0 0 0 0 0 0 0 0 0 0 0 0 0
CIN
-269 -183 -188 -73 -32 -27 -26 -30 -39 -47 -39 -24 -14 -22 -15 -27 -19 -14 -1 -6 -2 -3 -6 -4 -24 -25 -31 -1 0 0 0 0 0 -60 0 0 -1 -4 -43 -33 -7 -3 0
-299 -175 -164 -42 -28 -24 -30 -34 -31 -35 -38 -35 -41 -2 -3 -4 -4 0 0 -4 -2 -20 -44 0 0 0 0 -1 0 0 0 0 0 0 -15 -9 -3 -21 0 0 0 -44 -8
-351 -196 -155 -49 -29 -24 -38 -46 -40 -25 -10 -16 0 0 0 -1 -10 -1 0 -3 -8 -54 -97 0 0 0 0 0 0 0 0 0 0 0 0 -22 -11 -2 -6 0 0 0 0
0 -178 -133 -82 -39 -30 -40 -22 -69 -56 -1 0 -1 -1 -4 -17 -29 -30 -23 -31 -66 0 0 0 0 0 0 0 0 0 0 0 0 0 0 0 0 -15 -1 -9 0 0 0
0 -190 -115 -76 -55 -37 -29 -31 -74 -87 -22 -2 -2 -1 -10 -43 -97 -243 -19 -217 0 0 0 0 0 0 0 0 0 0 0 0 0 0 0 0 0 -38 -23 -21 -2 0 0
0 -269 -132 -100 -41 -24 -23 -41 -75 -94 -38 0 0 -5 -25 -201 -2 0 0 0 0 0 0 0 0 0 0 0 0 0 0 0 0 0 0 0 -3 0 -3 -77 -3 0 0
0 -446 -203 -149 -84 -53 -33 -28 -53 -73 -26 0 -9 -38 -152 -266 -1 0 0 0 0 0 0 0 0 0 0 0 0 0 0 0 0 0 0 0 0 0 0 0 0 0 0
0 0 -473 -249 -131 -95 -62 -41 -44 -63 -34 -6 -34 -195 -242 -98 -1 0 0 0 0 0 0 0 0 0 0 0 0 0 0 0 0 0 0 0 0 0 0 0 0 0 0
-535 -588 -483 -380 -273 -198 -129 -89 -68 -59 -61 -28 -194 0 -16 0 0 0 0 0 0 0 0 0 0 0 0 0 0 0 0 0 0 0 0 0 0 0 0 0 0 0 0
-574 -541 -515 -429 -357 -238 -159 -128 -97 -103 -61 -136 -125 0 0 0 -1 0 0 0 0 0 0 0 0 0 0 0 0 0 0 0 0 0 0 0 0 0 0 0 0 0 0
0 -556 -529 -460 -373 -334 -279 -196 -190 -174 -188 -235 0 0 0 0 0 0 0 0 0 0 0 0 0 0 0 0 0 0 0 0 0 0 0 0 0 0 0 0 0 0 0
0 -197 -558 -493 -415 -370 -368 -342 -225 -211 -205 -263 -239 0 0 0 0 0 0 0 0 0 0 0 0 0 0 0 0 0 0 0 0 0 0 0 0 0 0 0 0 0 0
0 0 0 -214 -510 -441 -424 -442 -424 -440 -338 -239 -271 -361 0 0 0 0 0 0 0 0 0 0 0 0 0 0 0 0 0 0 0 0 0 0 0 0 0 0 0 0 0
0 0 0 0 0 -589 -503 -332 -402 -406 -417 -345 -341 -361 0 0 0 0 0 0 0 0 0 0 0 0 0 0 0 0 0 0 0 0 0 0 0 0 0 0 0 0 0
0 0 0 0 0 0 -660 -588 0 0 0 -326 0 -1 0 0 0 0 0 0 0 0 0 0 0 0 0 0 0 0 0 0 0 0 0 0 0 0 0 0 0 0 0
0 0 0 0 0 0 0 -235 0 0 0 0 0 0 0 0 0 0 0 0 0 0 0 0 0 0 0 0 0 0 0 0 0 0 0 0 0 0 0 0 0 0 -1
0 0 0 0 0 0 0 0 0 0 0 0 0 0 0 0 0 0 0 0 0 0 0 0 0 0 0 0 0 0 0 0 0 0 0 0 0 0 0 -2 -3 -1 -1
0 0 0 0 0 0 0 0 0 0 0 0 0 0 0 0 0 0 0 0 0 0 0 0 0 0 0 0 0 0 0 0 0 0 0 0 0 0 0 0 0 0 0
0 0 0 0 0 0 0 0 0 0 0 0 0 0 0 0 0 0 0 0 0 0 0 0 0 0 0 0 0 0 0 0 0 0 0 0 0 0 0 0 0 0 0
0 0 0 0 0 0 0 0 0 0 0 0 0 0 0 0 0 0 0 0 0 0 0 0 0 0 0 0 0 0 0 0 0 0 0 0 0 0 0 0 0 0 0
0 0 0 0 0 0 0 0 0 0 0 0 0 0 0 0 0 0 0 0 0 0 0 0 0 0 0 0 0 0 0 0 0 0 0 0 0 0 0 0 0 0 0
0 0 0 0 0 0 0 0 0 0 0 0 0 0 -1 0 0 0 0 0 0 0 0 0 0 0 0 0 0 0 0 0 0 0 0 0 0 0 0 0 0 0 0
0 0 0 0 0 0 0 0 0 0 0 0 0 0 0 0 0 0 0 0 0 0 0 0 0 0 0 0 0 0 0 0 0 0 0 0 0 0 0 0 0 0 0
0 0 0 0 0 0 0 0 0 0 0 0 0 0 0 0 0 0 0 0 0 0 0 0 0 0 0 0 0 0 0 0 0 0 0 0 0 0 0 0 0 0 0
0 0 0 0 0 0 0 0 0 0 0 0 0 0 0 0 0 0 0 0 0 0 0 0 0 0 0 0 0 0 0 0 0 0 0 0 0 0 0 0 0 0 0
0 0 0 0 0 0 0 0 0 0 0 0 0 0 0 0 0 0 0 0 0 0 0 0 0 0 0 0 0 0 0 0 0 0 0 0 0 0 0 0 0 0 0
Wind_Speed
15 17 21 22 22 21 17 10 4 5 6 6 7 8 8 10 11 11 10 10 11 13 13 14 14 14 14 14 14 15 15 15 14 15 15 14 15 15 15 16 15 16 16
14 16 20 20 21 19 19 15 9 6 5 6 8 8 8 9 10 10 12 12 13 13 14 14 14 14 14 14 15 15 15 15 15 14 14 14 15 15 16 16 16 16 16
12 14 17 17 18 18 17 15 12 9 7 6 6 6 8 10 11 11 12 12 12 12 13 13 13 14 14 14 15 15 15 15 15 15 15 14 15 15 15 15 16 16 16
10 11 14 14 13 14 14 13 12 10 8 8 7 7 7 9 11 13 14 14 13 13 14 13 14 14 14 15 15 15 15 15 16 16 16 15 15 16 15 15 15 16 15
11 9 10 11 11 9 9 10 8 9 9 9 6 6 7 8 9 13 15 16 15 15 15 15 15 15 16 16 16 17 16 16 16 17 16 16 16 15 16 15 15 15 16
12 10 8 8 7 7 6 4 3 3 3 4 4 5 5 8 11 15 15 14 14 14 15 15 15 15 16 17 17 18 17 17 19 17 17 16 16 16 16 16 16 16 15
10 11 9 10 9 5 3 4 1 2 2 1 2 3 5 8 13 14 13 13 12 13 14 14 14 15 15 15 16 16 16 16 16 16 16 16 17 17 17 17 16 16 16
8 9 9 10 11 9 5 4 2 2 3 2 3 5 8 10 12 13 13 13 13 14 13 13 13 13 14 14 15 16 16 17 16 16 16 16 18 17 18 18 18 17 17
5 6 7 7 9 9 10 9 6 3 4 4 5 8 12 11 12 12 13 12 13 13 13 12 12 13 13 14 15 16 17 18 17 17 17 18 20 19 20 20 19 19 19
4 2 4 5 6 7 6 7 8 7 5 4 5 9 11 12 12 12 13 14 14 13 12 12 12 13 14 15 16 16 16 18 18 18 19 20 21 20 20 20 19 19 19
5 2 1 2 3 5 5 5 5 5 7 6 4 5 7 10 10 11 12 12 12 12 12 12 12 13 13 15 16 17 19 18 18 19 19 21 21 20 20 20 20 19 18
9 6 4 4 4 4 4 4 6 5 5 5 5 5 5 5 6 6 8 10 11 10 11 12 12 12 14 15 16 18 18 19 19 20 20 22 22 21 20 20 20 18 17
12 11 9 7 7 7 7 7 7 7 7 7 8 6 6 5 6 7 8 7 7 8 11 11 13 15 17 17 17 18 18 19 19 20 21 22 22 21 20 19 18 18 19
15 12 9 9 9 9 10 11 11 10 9 10 9 8 8 8 8 7 7 6 7 7 8 10 13 15 15 16 17 18 19 20 20 20 20 22 23 21 19 19 19 18 18
11 9 9 9 10 10 10 11 12 13 12 11 11 11 10 10 10 9 9 8 8 8 9 10 11 12 13 15 16 17 19 20 20 20 20 20 22 20 18 18 17 17 16
13 13 11 10 11 11 11 12 11 12 12 12 13 13 12 12 12 12 11 11 10 10 10 10 11 11 13 14 15 17 18 19 19 19 19 19 20 20 18 18 17 16 16
21 18 15 14 14 13 13 13 13 13 13 13 13 13 13 13 13 13 14 13 13 13 12 12 12 12 13 14 15 16 17 18 18 18 18 17 16 18 18 16 16 15 16
24 20 20 21 21 19 18 18 17 17 16 16 16 15 15 15 15 15 15 15 14 14 14 13 13 13 13 13 14 15 16 18 18 17 17 16 16 15 17 17 17 17 18
27 26 23 20 20 21 22 23 22 21 20 20 19 19 18 18 18 18 17 17 16 16 16 15 15 14 14 14 15 16 17 17 18 17 17 16 17 17 16 17 17 19 19
26 26 25 24 22 22 23 23 24 24 24 25 24 24 22 21 21 20 20 19 18 18 18 17 17 16 16 15 16 18 18 18 18 18 17 17 17 16 16 16 17 17 18
25 24 24 23 22 19 20 22 23 26 26 27 27 28 27 24 23 22 22 21 20 21 21 20 19 19 19 15 17 20 21 19 19 18 18 18 18 17 17 16 16 16 16
27 26 26 25 24 22 22 23 24 24 25 26 27 27 27 27 26 25 24 24 23 24 24 23 22 22 22 17 22 20 25 24 22 20 19 18 17 17 17 16 17 17 16
26 27 27 26 24 23 23 24 25 25 26 28 26 27 27 28 27 27 27 28 26 26 25 24 23 23 25 23 22 24 27 29 21 21 21 20 18 16 16 15 15 15 15
27 26 25 26 26 26 25 24 27 28 29 27 28 26 25 25 28 28 29 29 28 28 28 27 25 26 26 27 26 28 27 24 26 26 22 21 20 19 17 15 15 15 15
26 26 27 28 28 28 27 26 27 28 28 28 27 28 27 26 25 27 27 28 30 30 29 28 28 28 29 30 29 29 29 28 27 26 27 23 22 20 18 17 16 16 15
24 26 28 29 30 31 30 29 28 29 29 29 29 30 28 27 28 28 29 29 30 31 31 31 30 31 31 31 30 31 30 30 29 28 28 24 24 22 20 19 18 17 16
Wind_Direction
116 115 130 134 136 136 124 102 40 353 353 347 336 349 347 325 309 308 312 322 315 309 306 316 322 326 319 320 321 319 322 329 335 344 348 358 354 353 349 342 3 1 356
111 113 132 133 136 132 131 118 91 49 12 354 327 324 340 343 332 331 307 305 309 313 317 317 320 317 315 314 318 320 322 320 322 336 346 358 349 348 343 345 346 349 351
98 113 132 132 134 133 128 119 109 86 70 46 40 5 339 325 317 321 316 312 328 329 325 324 331 328 326 321 321 321 324 324 321 323 317 339 347 337 337 341 343 345 347
86 105 130 134 132 131 128 123 114 103 88 82 65 49 32 348 319 309 301 303 311 317 321 323 325 328 325 323 321 319 316 318 313 309 310 320 333 331 335 336 339 339 345
93 105 122 132 135 133 131 127 117 113 113 111 78 46 20 5 348 321 308 297 299 305 310 314 315 316 316 315 312 312 311 307 305 301 312 309 317 333 320 324 334 330 332
107 115 104 132 136 138 140 135 118 106 93 85 69 53 37 345 335 319 312 312 313 314 312 313 315 313 312 309 307 303 303 302 291 304 304 306 318 321 318 319 323 327 331
109 126 112 136 147 149 163 158 173 300 315 66 25 18 347 333 316 317 319 323 324 321 318 323 324 322 322 322 318 313 308 306 312 311 309 308 319 318 318 318 321 325 327
107 119 132 142 153 155 162 185 226 259 279 262 295 315 319 318 315 312 314 315 318 318 320 326 327 329 329 328 328 324 319 314 323 322 318 320 311 316 313 315 314 316 314
81 112 127 130 152 160 167 170 180 236 239 238 277 296 302 309 309 311 311 313 313 315 318 321 327 329 330 329 326 325 322 316 322 319 318 317 306 311 308 307 303 302 303
23 95 135 137 151 158 159 168 171 174 185 232 266 288 297 301 301 303 304 305 306 312 317 320 321 324 323 320 322 324 325 320 322 320 317 313 306 311 311 308 307 308 307
331 305 222 201 185 177 174 178 182 186 184 196 227 272 292 300 299 299 299 301 303 307 308 313 318 321 323 322 321 322 317 320 321 319 317 309 308 311 311 310 310 312 314
314 296 276 259 243 234 229 221 205 218 210 219 232 260 270 281 294 295 300 300 301 304 307 308 311 315 316 319 321 320 321 321 320 316 315 309 310 312 313 312 312 316 320
311 304 287 270 256 247 253 265 271 240 239 232 222 247 255 263 284 291 299 296 302 302 304 306 307 307 308 312 316 319 322 321 321 320 318 312 311 312 313 315 316 316 316
309 300 284 262 256 246 263 267 271 268 256 257 254 246 264 265 273 276 285 281 288 295 302 306 306 307 310 312 315 317 319 320 320 321 322 316 312 313 315 314 315 317 318
294 279 271 263 246 246 238 259 263 265 262 259 260 254 255 259 266 270 274 277 281 289 294 301 306 309 311 314 316 317 319 319 319 320 321 321 318 318 320 319 319 320 321
297 290 281 267 261 253 241 237 254 257 261 259 262 262 250 262 265 265 269 271 275 278 286 292 299 304 309 312 315 318 320 322 322 323 323 324 323 321 319 319 318 318 321
298 293 284 277 270 259 255 256 256 263 261 259 260 257 249 256 262 265 267 268 273 278 280 286 291 299 304 308 311 315 319 320 322 322 323 325 327 327 327 326 327 324 322
302 294 291 287 280 272 268 269 270 271 269 269 268 266 258 256 263 263 265 266 267 269 271 276 280 287 295 301 307 312 314 316 318 320 322 323 325 324 325 324 324 323 321
309 303 298 292 285 281 277 276 275 274 272 272 272 271 265 259 262 266 268 268 264 267 267 269 273 277 283 291 299 306 309 311 313 315 317 318 316 317 318 317 319 318 315
321 314 308 304 299 293 287 282 279 278 277 277 276 275 272 268 263 263 268 268 266 269 268 269 271 275 279 285 294 299 303 305 307 309 311 314 315 315 317 317 317 317 315
335 330 323 315 309 307 298 291 287 283 281 279 278 276 274 271 264 261 265 265 264 267 268 267 270 271 276 280 289 296 298 300 301 302 305 307 309 311 313 315 314 315 315
339 335 332 326 320 314 304 300 298 296 291 288 285 281 275 272 268 264 263 262 262 265 267 266 266 269 275 266 282 289 291 294 295 295 298 300 302 305 308 310 309 306 307
341 340 340 338 335 331 318 307 302 300 302 296 292 288 282 276 271 267 264 265 263 261 259 258 259 261 268 266 273 286 289 289 293 291 291 292 295 298 304 307 306 304 300
340 342 346 348 345 337 330 319 305 300 299 300 299 298 292 284 278 273 269 265 262 259 261 259 258 261 264 267 268 275 284 292 290 291 289 287 290 293 297 302 301 299 295
339 339 340 341 345 344 335 329 320 313 308 304 302 300 297 293 287 280 273 269 267 263 259 257 256 257 262 267 265 271 273 281 286 290 289 287 286 288 292 295 296 294 291
334 335 341 342 342 340 336 333 329 322 318 312 306 304 301 297 291 286 281 276 272 267 263 261 258 257 258 261 264 269 268 272 273 279 286 284 284 284 284 288 288 288 287